Flag for Germany Weather past 2 weeks in Meiningen, Thuringia, Germany

Now
60 °F

Overcast.


Feels Like: 60 °F
Forecast: 46 / 69 °F
Wind: 6 mph from West

Location: Meiningen

Current Time: Jul 30, 2015 at 2:43:21 PM

Latest Report: Jul 30, 2015 at 2:00 PM


Visibility: 31 mi

Pressure: 29.97 "Hg

Humidity: 51%

Dew point: 42 °F

Location of MeiningenLocation

Historic Weather in Meiningen — Graph

°F

Meiningen temperature yesterday

Maximum temperature yesterday: 63 °F (at 6:00 PM)
Minimum temperature yesterday: 52 °F (at 8:00 AM)
Average temperature yesterday: 58 °F

Past Weeks' High & Low Weather Summary

 TemperatureHumidityPressure
High91 °F (Jul 17, 6:00 PM)100% (Jul 19, 4:00 AM)30.10 "Hg (Jul 19, 4:00 AM)
Low49 °F (Jul 30, 7:00 AM)22% (Jul 17, 6:00 PM)29.62 "Hg (Jul 27, 12:00 PM)
Average67 °F65%29.89 "Hg
* Reported Jul 15 1:00 PM — Jul 30 1:00 PM, Meiningen, Weather by CustomWeather, © 2015

Note: Actual official high and low records may vary slightly from our data, if they occured in-between our weather recording intervals... More about our weather records

Advertising

Meiningen weather history for previous 24 hours

 ConditionsComfort  
Time TempWeatherWind HumidityBarometerVisibility
1:00 PM
Thu, Jul 30
60 °FOvercast.6 mph52%29.96 "Hg31 mi
12:00 PM59 °FOvercast.6 mph55%29.96 "Hg34 mi
10:00 AM58 °FPassing clouds.5 mph57%29.96 "Hg22 mi
9:00 AM56 °FSunny.5 mph65%29.96 "Hg25 mi
8:00 AM50 °FPassing clouds.3 mph80%29.97 "Hg25 mi
7:00 AM49 °FSunny.2 mph80%29.97 "Hg40 mi
4:00 AM51 °FClear.5 mph73%29.95 "Hg43 mi
3:00 AM52 °FClear.5 mph71%29.94 "Hg43 mi
2:00 AM54 °FClear.6 mph65%29.93 "Hg43 mi
1:00 AM54 °FClear.6 mph66%29.91 "Hg43 mi
12:00 AM54 °FClear.3 mph66%29.91 "Hg43 mi
10:00 PM
Wed, Jul 29
57 °FPassing clouds.5 mph54%29.88 "Hg43 mi
9:00 PM58 °FSunny.5 mph54%29.85 "Hg43 mi
8:00 PM62 °FPartly sunny.7 mph41%29.81 "Hg43 mi
7:00 PM62 °FScattered clouds.6 mph43%29.79 "Hg40 mi
6:00 PM63 °FPartly sunny.6 mph48%29.78 "Hg19 mi
5:00 PM62 °FPartly sunny.7 mph50%29.77 "Hg31 mi
4:00 PM62 °FPartly sunny.7 mph56%29.76 "Hg25 mi
3:00 PM61 °FPassing clouds.8 mph53%29.76 "Hg11 mi
2:00 PM60 °FOvercast.9 mph58%29.76 "Hg25 mi
Weather by CustomWeather, © 2015

See weather overviewHow to use our weather pages